Home   Weather   Shizuoka   Past weeks

Flag for Japan Past Weather in Shizuoka, Japan — Yesterday and Last 2 Weeks

63 °F


Feels Like: 63 °F
Forecast: 56 / 80 °F
Wind: 9 mph from Northeast

Location: Omaezaki

Current Time: Oct 25, 2016 at 11:02:05 PM

Latest Report: Oct 25, 2016 at 10:00 PM

Visibility: 13 mi

Pressure: 30.02 "Hg

Humidity: 95%

Dew Point: 62 °F

Location of ShizuokaLocation

Past Weather in Shizuoka — Graph


Shizuoka Temperature Yesterday

Maximum temperature yesterday: 67 °F (at 2:00 PM)
Minimum temperature yesterday: 61 °F (at 7:00 PM)
Average temperature yesterday: 63 °F

High & Low Weather Summary for the Past Weeks

High79 °F (Oct 20, 1:00 PM)98% (Oct 17, 8:00 AM)30.35 "Hg (Oct 17, 8:00 AM)
Low60 °F (Oct 15, 6:00 AM)50% (Oct 21, 2:00 PM)29.74 "Hg (Oct 23, 4:00 AM)
Average68 °F76%30.04 "Hg
* Reported Oct 10 10:00 PM — Oct 25 9:00 PM, Shizuoka, Weather by CustomWeather, © 2016

Note: Actual official high and low records may vary slightly from our data, if they occured in-between our weather recording intervals... More about our weather records


Shizuoka Weather History for the Previous 24 Hours

Scroll right to see more
Time TempWeatherWind HumidityBarometerVisibility
9:00 PM
Tue, Oct 25
62 °FLight rain. Overcast.10 mph95%30.04 "Hg12 mi
8:00 PM63 °FLight rain. Overcast.9 mph94%30.04 "Hg12 mi
7:00 PM62 °FLight rain. Overcast.9 mph97%30.04 "Hg2 mi
6:00 PM61 °FRain. Overcast.9 mph96%30.04 "Hg4 mi
5:00 PM63 °FLight rain. Overcast.8 mph91%30.04 "Hg5 mi
4:00 PM64 °FMild.13 mph83%30.03 "Hg12 mi
3:00 PM64 °FMild.15 mph80%30.03 "Hg12 mi
2:00 PM63 °FMild.17 mph82%30.05 "Hg12 mi
1:00 PM62 °FLight rain. Cloudy.13 mph85%30.07 "Hg12 mi
12:00 PM63 °FLight rain. Cloudy.9 mph79%30.10 "Hg7 mi
11:00 AM64 °FMild.9 mph73%30.11 "Hg12 mi
10:00 AM64 °FMild.9 mph70%30.14 "Hg12 mi
9:00 AM64 °FMild.9 mph73%30.16 "Hg12 mi
7:00 AM62 °FCool.10 mph79%30.14 "Hg12 mi
6:00 AM64 °FMild.8 mph63%30.12 "Hg12 mi
5:00 AM62 °FMild.10 mph80%30.11 "Hg12 mi
4:00 AM62 °FCool.10 mph78%30.11 "Hg12 mi
3:00 AM62 °FCool.8 mph76%30.10 "Hg12 mi
2:00 AM62 °FCool.9 mph70%30.10 "Hg12 mi
1:00 AM61 °FCool.9 mph69%30.11 "Hg12 mi
12:00 AM61 °FCool.7 mph72%30.10 "Hg12 mi
11:00 PM
Mon, Oct 24
61 °FCool.7 mph73%30.10 "Hg12 mi
Weather by CustomWeather, © 2016

See weather overviewHow to use our weather pages